Year,Month,Day,Hour,Minute,Value (Times are PST for temperature in C)
2018,07,13,00,00,17.50
2018,07,13,00,01,17.50
2018,07,13,00,02,17.50
2018,07,13,00,03,17.50
2018,07,13,00,04,17.40
2018,07,13,00,05,17.40
2018,07,13,00,06,17.40
2018,07,13,00,07,17.40
2018,07,13,00,08,17.40
2018,07,13,00,09,17.30
2018,07,13,00,10,17.30
2018,07,13,00,11,17.30
2018,07,13,00,12,17.30
2018,07,13,00,13,17.30
2018,07,13,00,14,17.30
2018,07,13,00,15,17.30
2018,07,13,00,16,17.30
2018,07,13,00,17,17.20
2018,07,13,00,18,17.20
2018,07,13,00,19,17.20
2018,07,13,00,20,17.20
2018,07,13,00,21,17.20
2018,07,13,00,22,17.20
2018,07,13,00,23,17.20
2018,07,13,00,24,17.20
2018,07,13,00,25,17.20
2018,07,13,00,26,17.10
2018,07,13,00,27,17.10
2018,07,13,00,28,17.10
2018,07,13,00,29,17.10
2018,07,13,00,30,17.10
2018,07,13,00,31,17.10
2018,07,13,00,32,17.00
2018,07,13,00,33,17.00
2018,07,13,00,34,17.00
2018,07,13,00,35,17.00
2018,07,13,00,36,16.90
2018,07,13,00,37,16.90
2018,07,13,00,38,16.90
2018,07,13,00,39,16.90
2018,07,13,00,40,16.80
2018,07,13,00,41,16.80
2018,07,13,00,42,16.80
2018,07,13,00,43,16.80
2018,07,13,00,44,16.80
2018,07,13,00,45,16.70
2018,07,13,00,46,16.70
2018,07,13,00,47,16.70
2018,07,13,00,48,16.70
2018,07,13,00,49,16.70
2018,07,13,00,50,16.60
2018,07,13,00,51,16.60
2018,07,13,00,52,16.60
2018,07,13,00,53,16.60
2018,07,13,00,54,16.60
2018,07,13,00,55,16.50
2018,07,13,00,56,16.50
2018,07,13,00,57,16.50
2018,07,13,00,58,16.40
2018,07,13,00,59,16.40
2018,07,13,01,00,16.40
2018,07,13,01,01,16.40
2018,07,13,01,02,16.40
2018,07,13,01,03,16.40
2018,07,13,01,04,16.30
2018,07,13,01,05,16.30
2018,07,13,01,06,16.30
2018,07,13,01,07,16.30
2018,07,13,01,08,16.30
2018,07,13,01,09,16.30
2018,07,13,01,10,16.30
2018,07,13,01,11,16.30
2018,07,13,01,12,16.20
2018,07,13,01,13,16.20
2018,07,13,01,14,16.20
2018,07,13,01,15,16.20
2018,07,13,01,16,16.20
2018,07,13,01,17,16.20
2018,07,13,01,18,16.20
2018,07,13,01,19,16.20
2018,07,13,01,20,16.20
2018,07,13,01,21,16.10
2018,07,13,01,22,16.10
2018,07,13,01,23,16.10
2018,07,13,01,24,16.10
2018,07,13,01,25,16.10
2018,07,13,01,26,16.10
2018,07,13,01,27,16.10
2018,07,13,01,28,16.10
2018,07,13,01,29,16.10
2018,07,13,01,30,16.10
2018,07,13,01,31,16.10
2018,07,13,01,32,16.10
2018,07,13,01,33,16.00
2018,07,13,01,34,16.00
2018,07,13,01,35,16.00
2018,07,13,01,36,16.00
2018,07,13,01,37,16.00
2018,07,13,01,38,16.00
2018,07,13,01,39,15.90
2018,07,13,01,40,15.90
2018,07,13,01,41,15.90
2018,07,13,01,42,15.90
2018,07,13,01,43,15.90
2018,07,13,01,44,15.90
2018,07,13,01,45,15.90
2018,07,13,01,46,15.90
2018,07,13,01,47,15.80
2018,07,13,01,48,15.80
2018,07,13,01,49,15.80
2018,07,13,01,50,15.80
2018,07,13,01,51,15.80
2018,07,13,01,52,15.80
2018,07,13,01,53,15.80
2018,07,13,01,54,15.80
2018,07,13,01,55,15.80
2018,07,13,01,56,15.70
2018,07,13,01,57,15.70
2018,07,13,01,58,15.70
2018,07,13,01,59,15.70
2018,07,13,02,00,15.70
2018,07,13,02,01,15.70
2018,07,13,02,02,15.70
2018,07,13,02,03,15.70
2018,07,13,02,04,15.70
2018,07,13,02,05,15.70
2018,07,13,02,06,15.70
2018,07,13,02,07,15.70
2018,07,13,02,08,15.60
2018,07,13,02,09,15.60
2018,07,13,02,10,15.60
2018,07,13,02,11,15.60
2018,07,13,02,12,15.60
2018,07,13,02,13,15.60
2018,07,13,02,14,15.60
2018,07,13,02,15,15.60
2018,07,13,02,16,15.60
2018,07,13,02,17,15.50
2018,07,13,02,18,15.50
2018,07,13,02,19,15.50
2018,07,13,02,20,15.50
2018,07,13,02,21,15.50
2018,07,13,02,22,15.40
2018,07,13,02,23,15.40
2018,07,13,02,24,15.40
2018,07,13,02,25,15.40
2018,07,13,02,26,15.40
2018,07,13,02,27,15.40
2018,07,13,02,28,15.40
2018,07,13,02,29,15.40
2018,07,13,02,30,15.30
2018,07,13,02,31,15.30
2018,07,13,02,32,15.30
2018,07,13,02,33,15.30
2018,07,13,02,34,15.30
2018,07,13,02,35,15.30
2018,07,13,02,36,15.30
2018,07,13,02,37,15.30
2018,07,13,02,38,15.20
2018,07,13,02,39,15.20
2018,07,13,02,40,15.20
2018,07,13,02,41,15.20
2018,07,13,02,42,15.20
2018,07,13,02,43,15.20
2018,07,13,02,44,15.20
2018,07,13,02,45,15.10
2018,07,13,02,46,15.10
2018,07,13,02,47,15.10
2018,07,13,02,48,15.10
2018,07,13,02,49,15.10
2018,07,13,02,50,15.10
2018,07,13,02,51,15.00
2018,07,13,02,52,15.00
2018,07,13,02,53,15.00
2018,07,13,02,54,15.00
2018,07,13,02,55,15.00
2018,07,13,02,56,15.00
2018,07,13,02,57,15.00
2018,07,13,02,58,15.00
2018,07,13,02,59,15.00
2018,07,13,03,00,15.00
2018,07,13,03,01,15.00
2018,07,13,03,02,15.00
2018,07,13,03,03,15.00
2018,07,13,03,04,15.00
2018,07,13,03,05,15.00
2018,07,13,03,06,15.00
2018,07,13,03,07,15.00
2018,07,13,03,08,15.00
2018,07,13,03,09,14.90
2018,07,13,03,10,14.90
2018,07,13,03,11,14.90
2018,07,13,03,12,14.90
2018,07,13,03,13,14.80
2018,07,13,03,14,14.80
2018,07,13,03,15,14.80
2018,07,13,03,16,14.80
2018,07,13,03,17,14.80
2018,07,13,03,18,14.80
2018,07,13,03,19,14.70
2018,07,13,03,20,14.70
2018,07,13,03,21,14.70
2018,07,13,03,22,14.70
2018,07,13,03,23,14.70
2018,07,13,03,24,14.70
2018,07,13,03,25,14.60
2018,07,13,03,26,14.60
2018,07,13,03,27,14.60
2018,07,13,03,28,14.60
2018,07,13,03,29,14.60
2018,07,13,03,30,14.60
2018,07,13,03,31,14.60
2018,07,13,03,32,14.50
2018,07,13,03,33,14.50
2018,07,13,03,34,14.50
2018,07,13,03,35,14.50
2018,07,13,03,36,14.50
2018,07,13,03,37,14.50
2018,07,13,03,38,14.50
2018,07,13,03,39,14.40
2018,07,13,03,40,14.40
2018,07,13,03,41,14.40
2018,07,13,03,42,14.40
2018,07,13,03,43,14.40
2018,07,13,03,44,14.40
2018,07,13,03,45,14.40
2018,07,13,03,46,14.40
2018,07,13,03,47,14.30
2018,07,13,03,48,14.30
2018,07,13,03,49,14.30
2018,07,13,03,50,14.30
2018,07,13,03,51,14.30
2018,07,13,03,52,14.30
2018,07,13,03,53,14.30
2018,07,13,03,54,14.30
2018,07,13,03,55,14.30
2018,07,13,03,56,14.30
2018,07,13,03,57,14.20
2018,07,13,03,58,14.20
2018,07,13,03,59,14.20
2018,07,13,04,00,14.20
2018,07,13,04,01,14.20
2018,07,13,04,02,14.20
2018,07,13,04,03,14.20
2018,07,13,04,04,14.20
2018,07,13,04,05,14.20
2018,07,13,04,06,14.20
2018,07,13,04,07,14.20
2018,07,13,04,08,14.20
2018,07,13,04,09,14.20
2018,07,13,04,10,14.20
2018,07,13,04,11,14.10
2018,07,13,04,12,14.10
2018,07,13,04,13,14.10
2018,07,13,04,14,14.10
2018,07,13,04,15,14.10
2018,07,13,04,16,14.10
2018,07,13,04,17,14.00
2018,07,13,04,18,14.00
2018,07,13,04,19,14.00
2018,07,13,04,20,14.00
2018,07,13,04,21,14.00
2018,07,13,04,22,14.00
2018,07,13,04,23,14.00
2018,07,13,04,24,14.00
2018,07,13,04,25,14.00
2018,07,13,04,26,13.90
2018,07,13,04,27,13.90
2018,07,13,04,28,13.90
2018,07,13,04,29,13.90
2018,07,13,04,30,13.90
2018,07,13,04,31,13.90
2018,07,13,04,32,13.90
2018,07,13,04,33,13.90
2018,07,13,04,34,13.90
2018,07,13,04,35,13.90
2018,07,13,04,36,13.90
2018,07,13,04,37,13.90
2018,07,13,04,38,13.80
2018,07,13,04,39,13.80
2018,07,13,04,40,13.80
2018,07,13,04,41,13.80
2018,07,13,04,42,13.80
2018,07,13,04,43,13.80
2018,07,13,04,44,13.80
2018,07,13,04,45,13.80
2018,07,13,04,46,13.80
2018,07,13,04,47,13.80
2018,07,13,04,48,13.80
2018,07,13,04,49,13.80
2018,07,13,04,50,13.80
2018,07,13,04,51,13.70
2018,07,13,04,52,13.70
2018,07,13,04,53,13.70
2018,07,13,04,54,13.70
2018,07,13,04,55,13.70
2018,07,13,04,56,13.70
2018,07,13,04,57,13.70
2018,07,13,04,58,13.60
2018,07,13,04,59,13.60
2018,07,13,05,00,13.60
2018,07,13,05,01,13.60
2018,07,13,05,02,13.60
2018,07,13,05,03,13.50
2018,07,13,05,04,13.50
2018,07,13,05,05,13.50
2018,07,13,05,06,13.40
2018,07,13,05,07,13.40
2018,07,13,05,08,13.40
2018,07,13,05,09,13.40
2018,07,13,05,10,13.40
2018,07,13,05,11,13.40
2018,07,13,05,12,13.40
2018,07,13,05,13,13.30
2018,07,13,05,14,13.30
2018,07,13,05,15,13.30
2018,07,13,05,16,13.30
2018,07,13,05,17,13.30
2018,07,13,05,18,13.30
2018,07,13,05,19,13.30
2018,07,13,05,20,13.30
2018,07,13,05,21,13.30
2018,07,13,05,22,13.30
2018,07,13,05,23,13.30
2018,07,13,05,24,13.20
2018,07,13,05,25,13.20
2018,07,13,05,26,13.20
2018,07,13,05,27,13.20
2018,07,13,05,28,13.20
2018,07,13,05,29,13.20
2018,07,13,05,30,13.20
2018,07,13,05,31,13.20
2018,07,13,05,32,13.20
2018,07,13,05,33,13.20
2018,07,13,05,34,13.20
2018,07,13,05,35,13.20
2018,07,13,05,36,13.20
2018,07,13,05,37,13.10
2018,07,13,05,38,13.10
2018,07,13,05,39,13.10
2018,07,13,05,40,13.10
2018,07,13,05,41,13.10
2018,07,13,05,42,13.10
2018,07,13,05,43,13.10
2018,07,13,05,44,13.10
2018,07,13,05,45,13.10
2018,07,13,05,46,13.10
2018,07,13,05,47,13.00
2018,07,13,05,48,13.00
2018,07,13,05,49,13.00
2018,07,13,05,50,13.00
2018,07,13,05,51,13.00
2018,07,13,05,52,13.00
2018,07,13,05,53,13.00
2018,07,13,05,54,13.00
2018,07,13,05,55,13.00
2018,07,13,05,56,13.00
2018,07,13,05,57,12.90
2018,07,13,05,58,12.90
2018,07,13,05,59,12.90
2018,07,13,06,00,12.90
2018,07,13,06,01,13.00
2018,07,13,06,02,13.00
2018,07,13,06,03,13.00
2018,07,13,06,04,13.00
2018,07,13,06,05,13.00
2018,07,13,06,06,13.00
2018,07,13,06,07,13.00
2018,07,13,06,08,13.00
2018,07,13,06,09,13.00
2018,07,13,06,10,13.00
2018,07,13,06,11,13.00
2018,07,13,06,12,13.00
2018,07,13,06,13,13.00
2018,07,13,06,14,12.90
2018,07,13,06,15,12.90
2018,07,13,06,16,12.90
2018,07,13,06,17,12.90
2018,07,13,06,18,12.90
2018,07,13,06,19,12.90
2018,07,13,06,20,12.90
2018,07,13,06,21,12.90
2018,07,13,06,22,12.90
2018,07,13,06,23,12.90
2018,07,13,06,24,12.90
2018,07,13,06,25,12.90
2018,07,13,06,26,12.90
2018,07,13,06,27,12.90
2018,07,13,06,28,12.90
2018,07,13,06,29,12.90
2018,07,13,06,30,12.90
2018,07,13,06,31,12.90
2018,07,13,06,32,12.90
2018,07,13,06,33,12.90
2018,07,13,06,34,12.90
2018,07,13,06,35,12.90
2018,07,13,06,36,12.90
2018,07,13,06,37,12.90
2018,07,13,06,38,12.90
2018,07,13,06,39,12.90
2018,07,13,06,40,12.90
2018,07,13,06,41,12.90
2018,07,13,06,42,12.90
2018,07,13,06,43,12.90
2018,07,13,06,44,12.90
2018,07,13,06,45,12.90
2018,07,13,06,46,12.90
2018,07,13,06,47,12.90
2018,07,13,06,48,12.90
2018,07,13,06,49,12.90
2018,07,13,06,50,12.90
2018,07,13,06,51,12.90
2018,07,13,06,52,12.90
2018,07,13,06,53,12.90
2018,07,13,06,54,12.90
2018,07,13,06,55,13.00
2018,07,13,06,56,13.00
2018,07,13,06,57,13.00
2018,07,13,06,58,13.00
2018,07,13,06,59,13.00
2018,07,13,07,00,13.00
2018,07,13,07,01,13.00
2018,07,13,07,02,13.00
2018,07,13,07,03,13.00
2018,07,13,07,04,13.00
2018,07,13,07,05,13.10
2018,07,13,07,06,13.10
2018,07,13,07,07,13.10
2018,07,13,07,08,13.10
2018,07,13,07,09,13.10
2018,07,13,07,10,13.10
2018,07,13,07,11,13.10
2018,07,13,07,12,13.10
2018,07,13,07,13,13.10
2018,07,13,07,14,13.10
2018,07,13,07,15,13.10
2018,07,13,07,16,13.10
2018,07,13,07,17,13.10
2018,07,13,07,18,13.10
2018,07,13,07,19,13.10
2018,07,13,07,20,13.10
2018,07,13,07,21,13.10
2018,07,13,07,22,13.10
2018,07,13,07,23,13.20
2018,07,13,07,24,13.20
2018,07,13,07,25,13.20
2018,07,13,07,26,13.20
2018,07,13,07,27,13.20
2018,07,13,07,28,13.20
2018,07,13,07,29,13.20
2018,07,13,07,30,13.20
2018,07,13,07,31,13.20
2018,07,13,07,32,13.30
2018,07,13,07,33,13.30
2018,07,13,07,34,13.30
2018,07,13,07,35,13.30
2018,07,13,07,36,13.30
2018,07,13,07,37,13.30
2018,07,13,07,38,13.30
2018,07,13,07,39,13.40
2018,07,13,07,40,13.40
2018,07,13,07,41,13.40
2018,07,13,07,42,13.40
2018,07,13,07,43,13.50
2018,07,13,07,44,13.50
2018,07,13,07,45,13.50
2018,07,13,07,46,13.60
2018,07,13,07,47,13.60
2018,07,13,07,48,13.60
2018,07,13,07,49,13.60
2018,07,13,07,50,13.70
2018,07,13,07,51,13.70
2018,07,13,07,52,13.70
2018,07,13,07,53,13.80
2018,07,13,07,54,13.80
2018,07,13,07,55,13.80
2018,07,13,07,56,13.80
2018,07,13,07,57,13.90
2018,07,13,07,58,13.90
2018,07,13,07,59,13.90
2018,07,13,08,00,14.00
2018,07,13,08,01,14.00
2018,07,13,08,02,14.00
2018,07,13,08,03,14.10
2018,07,13,08,04,14.10
2018,07,13,08,05,14.10
2018,07,13,08,06,14.20
2018,07,13,08,07,14.20
2018,07,13,08,08,14.30
2018,07,13,08,09,14.30
2018,07,13,08,10,14.30
2018,07,13,08,11,14.30
2018,07,13,08,12,14.40
2018,07,13,08,13,14.40
2018,07,13,08,14,14.40
2018,07,13,08,15,14.50
2018,07,13,08,16,14.50
2018,07,13,08,17,14.60
2018,07,13,08,18,14.60
2018,07,13,08,19,14.60
2018,07,13,08,20,14.70
2018,07,13,08,21,14.70
2018,07,13,08,22,14.70
2018,07,13,08,23,14.80
2018,07,13,08,24,14.80
2018,07,13,08,25,14.90
2018,07,13,08,26,15.00
2018,07,13,08,27,15.00
2018,07,13,08,28,15.00
2018,07,13,08,29,15.00
2018,07,13,08,30,15.00
2018,07,13,08,31,15.00
2018,07,13,08,32,15.00
2018,07,13,08,33,15.00
2018,07,13,08,34,15.00
2018,07,13,08,35,15.10
2018,07,13,08,36,15.10
2018,07,13,08,37,15.10
2018,07,13,08,38,15.20
2018,07,13,08,39,15.20
2018,07,13,08,40,15.20
2018,07,13,08,41,15.30
2018,07,13,08,42,15.30
2018,07,13,08,43,15.30
2018,07,13,08,44,15.40
2018,07,13,08,45,15.40
2018,07,13,08,46,15.40
2018,07,13,08,47,15.50
2018,07,13,08,48,15.50
2018,07,13,08,49,15.50
2018,07,13,08,50,15.60
2018,07,13,08,51,15.60
2018,07,13,08,52,15.70
2018,07,13,08,53,15.70
2018,07,13,08,54,15.70
2018,07,13,08,55,15.80
2018,07,13,08,56,15.80
2018,07,13,08,57,15.90
2018,07,13,08,58,16.00
2018,07,13,08,59,16.00
2018,07,13,09,00,16.10
2018,07,13,09,01,16.20
2018,07,13,09,02,16.20
2018,07,13,09,03,16.30
2018,07,13,09,04,16.40
2018,07,13,09,05,16.50
2018,07,13,09,06,16.50
2018,07,13,09,07,16.60
2018,07,13,09,08,16.70
2018,07,13,09,09,16.80
2018,07,13,09,10,16.80
2018,07,13,09,11,16.90
2018,07,13,09,12,17.00
2018,07,13,09,13,17.10
2018,07,13,09,14,17.20
2018,07,13,09,15,17.30
2018,07,13,09,16,17.40
2018,07,13,09,17,17.50
2018,07,13,09,18,17.50
2018,07,13,09,19,17.60
2018,07,13,09,20,17.70
2018,07,13,09,21,17.70
2018,07,13,09,22,17.80
2018,07,13,09,23,17.80
2018,07,13,09,24,17.90
2018,07,13,09,25,18.00
2018,07,13,09,26,18.00
2018,07,13,09,27,18.10
2018,07,13,09,28,18.20
2018,07,13,09,29,18.20
2018,07,13,09,30,18.30
2018,07,13,09,31,18.40
2018,07,13,09,32,18.50
2018,07,13,09,33,18.50
2018,07,13,09,34,18.60
2018,07,13,09,35,18.70
2018,07,13,09,36,18.80
2018,07,13,09,37,18.90
2018,07,13,09,38,18.90
2018,07,13,09,39,19.00
2018,07,13,09,40,19.10
2018,07,13,09,41,19.20
2018,07,13,09,42,19.30
2018,07,13,09,43,19.40
2018,07,13,09,44,19.60
2018,07,13,09,45,19.70
2018,07,13,09,46,19.80
2018,07,13,09,47,20.00
2018,07,13,09,48,20.10
2018,07,13,09,49,20.20
2018,07,13,09,50,20.40
2018,07,13,09,51,20.50
2018,07,13,09,52,20.60
2018,07,13,09,53,20.70
2018,07,13,09,54,20.80
2018,07,13,09,55,20.80
2018,07,13,09,56,20.90
2018,07,13,09,57,21.00
2018,07,13,09,58,21.20
2018,07,13,09,59,21.30
2018,07,13,10,00,21.30
2018,07,13,10,01,21.40
2018,07,13,10,02,21.50
2018,07,13,10,03,21.60
2018,07,13,10,04,21.70
2018,07,13,10,05,21.70
2018,07,13,10,06,21.80
2018,07,13,10,07,21.80
2018,07,13,10,08,21.80
2018,07,13,10,09,21.80
2018,07,13,10,10,21.80
2018,07,13,10,11,21.80
2018,07,13,10,12,21.80
2018,07,13,10,13,21.80
2018,07,13,10,14,21.80
2018,07,13,10,15,21.80
2018,07,13,10,16,21.90
2018,07,13,10,17,21.90
2018,07,13,10,18,21.90
2018,07,13,10,19,21.90
2018,07,13,10,20,21.90
2018,07,13,10,21,21.90
2018,07,13,10,22,21.90
2018,07,13,10,23,22.00
2018,07,13,10,24,22.00
2018,07,13,10,25,22.00
2018,07,13,10,26,22.00
2018,07,13,10,27,22.10
2018,07,13,10,28,22.10
2018,07,13,10,29,22.10
2018,07,13,10,30,22.10
2018,07,13,10,31,22.20
2018,07,13,10,32,22.20
2018,07,13,10,33,22.20
2018,07,13,10,34,22.20
2018,07,13,10,35,22.20
2018,07,13,10,36,22.20
2018,07,13,10,37,22.20
2018,07,13,10,38,22.20
2018,07,13,10,39,22.20
2018,07,13,10,40,22.20
2018,07,13,10,41,22.30
2018,07,13,10,42,22.30
2018,07,13,10,43,22.30
2018,07,13,10,44,22.40
2018,07,13,10,45,22.40
2018,07,13,10,46,22.40
2018,07,13,10,47,22.40
2018,07,13,10,48,22.50
2018,07,13,10,49,22.50
2018,07,13,10,50,22.60
2018,07,13,10,51,22.60
2018,07,13,10,52,22.70
2018,07,13,10,53,22.70
2018,07,13,10,54,22.80
2018,07,13,10,55,22.80
2018,07,13,10,56,22.90
2018,07,13,10,57,22.90
2018,07,13,10,58,23.00
2018,07,13,10,59,23.10
2018,07,13,11,00,23.10
2018,07,13,11,01,23.20
2018,07,13,11,02,23.30
2018,07,13,11,03,23.30
2018,07,13,11,04,23.40
2018,07,13,11,05,23.40
2018,07,13,11,06,23.50
2018,07,13,11,07,23.60
2018,07,13,11,08,23.60
2018,07,13,11,09,23.70
2018,07,13,11,10,23.80
2018,07,13,11,11,23.80
2018,07,13,11,12,23.90
2018,07,13,11,13,23.90
2018,07,13,11,14,24.00
2018,07,13,11,15,24.10
2018,07,13,11,16,24.10
2018,07,13,11,17,24.20
2018,07,13,11,18,24.20
2018,07,13,11,19,24.20
2018,07,13,11,20,24.30
2018,07,13,11,21,24.30
2018,07,13,11,22,24.30
2018,07,13,11,23,24.40
2018,07,13,11,24,24.40
2018,07,13,11,25,24.40
2018,07,13,11,26,24.40
2018,07,13,11,27,24.40
2018,07,13,11,28,24.40
2018,07,13,11,29,24.30
2018,07,13,11,30,24.30
2018,07,13,11,31,24.30
2018,07,13,11,32,24.30
2018,07,13,11,33,24.30
2018,07,13,11,34,24.30
2018,07,13,11,35,24.40
2018,07,13,11,36,24.40
2018,07,13,11,37,24.40
2018,07,13,11,38,24.40
2018,07,13,11,39,24.40
2018,07,13,11,40,24.40
2018,07,13,11,41,24.40
2018,07,13,11,42,24.50
2018,07,13,11,43,24.50
2018,07,13,11,44,24.60
2018,07,13,11,45,24.60
2018,07,13,11,46,24.70
2018,07,13,11,47,24.70
2018,07,13,11,48,24.80
2018,07,13,11,49,24.80
2018,07,13,11,50,24.90
2018,07,13,11,51,24.90
2018,07,13,11,52,25.00
2018,07,13,11,53,25.00
2018,07,13,11,54,25.10
2018,07,13,11,55,25.20
2018,07,13,11,56,25.20
2018,07,13,11,57,25.20
2018,07,13,11,58,25.30
2018,07,13,11,59,25.40
2018,07,13,12,00,25.40
2018,07,13,12,01,25.50
2018,07,13,12,02,25.50
2018,07,13,12,03,25.60
2018,07,13,12,04,25.60
2018,07,13,12,05,25.60
2018,07,13,12,06,25.60
2018,07,13,12,07,25.60
2018,07,13,12,08,25.70
2018,07,13,12,09,25.70
2018,07,13,12,10,25.80
2018,07,13,12,11,25.80
2018,07,13,12,12,25.90
2018,07,13,12,13,25.90
2018,07,13,12,14,25.90
2018,07,13,12,15,25.90
2018,07,13,12,16,25.90
2018,07,13,12,17,25.90
2018,07,13,12,18,25.90
2018,07,13,12,19,25.90
2018,07,13,12,20,25.90
2018,07,13,12,21,25.90
2018,07,13,12,22,25.90
2018,07,13,12,23,25.90
2018,07,13,12,24,25.90
2018,07,13,12,25,25.90
2018,07,13,12,26,25.90
2018,07,13,12,27,26.00
2018,07,13,12,28,26.10
2018,07,13,12,29,26.10
2018,07,13,12,30,26.10
2018,07,13,12,31,26.10
2018,07,13,12,32,26.10
2018,07,13,12,33,26.10
2018,07,13,12,34,26.10
2018,07,13,12,35,26.20
2018,07,13,12,36,26.20
2018,07,13,12,37,26.20
2018,07,13,12,38,26.20
2018,07,13,12,39,26.20
2018,07,13,12,40,26.20
2018,07,13,12,41,26.20
2018,07,13,12,42,26.20
2018,07,13,12,43,26.20
2018,07,13,12,44,26.20
2018,07,13,12,45,26.20
2018,07,13,12,46,26.20
2018,07,13,12,47,26.20
2018,07,13,12,48,26.20
2018,07,13,12,49,26.30
2018,07,13,12,50,26.20
2018,07,13,12,51,26.20
2018,07,13,12,52,26.20
2018,07,13,12,53,26.20
2018,07,13,12,54,26.20
2018,07,13,12,55,26.20
2018,07,13,12,56,26.20
2018,07,13,12,57,26.20
2018,07,13,12,58,26.10
2018,07,13,12,59,26.10
2018,07,13,13,00,26.10
2018,07,13,13,01,26.10
2018,07,13,13,02,26.00
2018,07,13,13,03,26.00
2018,07,13,13,04,25.90
2018,07,13,13,05,25.90
2018,07,13,13,06,25.90
2018,07,13,13,07,25.90
2018,07,13,13,08,25.90
2018,07,13,13,09,25.90
2018,07,13,13,10,25.90
2018,07,13,13,11,25.90
2018,07,13,13,12,26.00
2018,07,13,13,13,26.00
2018,07,13,13,14,26.00
2018,07,13,13,15,26.10
2018,07,13,13,16,26.10
2018,07,13,13,17,26.10
2018,07,13,13,18,26.10
2018,07,13,13,19,26.10
2018,07,13,13,20,26.20
2018,07,13,13,21,26.20
2018,07,13,13,22,26.20
2018,07,13,13,23,26.20
2018,07,13,13,24,26.20
2018,07,13,13,25,26.20
2018,07,13,13,26,26.20
2018,07,13,13,27,26.20
2018,07,13,13,28,26.20
2018,07,13,13,29,26.20
2018,07,13,13,30,26.20
2018,07,13,13,31,26.20
2018,07,13,13,32,26.20
2018,07,13,13,33,26.20
2018,07,13,13,34,26.30
2018,07,13,13,35,26.30
2018,07,13,13,36,26.30
2018,07,13,13,37,26.30
2018,07,13,13,38,26.40
2018,07,13,13,39,26.40
2018,07,13,13,40,26.40
2018,07,13,13,41,26.40
2018,07,13,13,42,26.40
2018,07,13,13,43,26.40
2018,07,13,13,44,26.50
2018,07,13,13,45,26.50
2018,07,13,13,46,26.50
2018,07,13,13,47,26.50
2018,07,13,13,48,26.50
2018,07,13,13,49,26.40
2018,07,13,13,50,26.50
2018,07,13,13,51,26.50
2018,07,13,13,52,26.50
2018,07,13,13,53,26.60
2018,07,13,13,54,26.60
2018,07,13,13,55,26.60
2018,07,13,13,56,26.60
2018,07,13,13,57,26.60
2018,07,13,13,58,26.60
2018,07,13,13,59,26.60
2018,07,13,14,00,26.60
2018,07,13,14,01,26.70
2018,07,13,14,02,26.70
2018,07,13,14,03,26.80
2018,07,13,14,04,26.80
2018,07,13,14,05,26.90
2018,07,13,14,06,26.90
2018,07,13,14,07,26.90
2018,07,13,14,08,27.00
2018,07,13,14,09,27.00
2018,07,13,14,10,27.10
2018,07,13,14,11,27.20
2018,07,13,14,12,27.20
2018,07,13,14,13,27.30
2018,07,13,14,14,27.40
2018,07,13,14,15,27.40
2018,07,13,14,16,27.40
2018,07,13,14,17,27.50
2018,07,13,14,18,27.60
2018,07,13,14,19,27.70
2018,07,13,14,20,27.70
2018,07,13,14,21,27.80
2018,07,13,14,22,27.80
2018,07,13,14,23,27.80
2018,07,13,14,24,27.90
2018,07,13,14,25,27.90
2018,07,13,14,26,27.80
2018,07,13,14,27,27.80
2018,07,13,14,28,27.80
2018,07,13,14,29,27.80
2018,07,13,14,30,27.80
2018,07,13,14,31,27.80
2018,07,13,14,32,27.80
2018,07,13,14,33,27.90
2018,07,13,14,34,27.90
2018,07,13,14,35,27.90
2018,07,13,14,36,27.90
2018,07,13,14,37,28.00
2018,07,13,14,38,28.00
2018,07,13,14,39,28.00
2018,07,13,14,40,28.10
2018,07,13,14,41,28.20
2018,07,13,14,42,28.20
2018,07,13,14,43,28.20
2018,07,13,14,44,28.20
2018,07,13,14,45,28.20
2018,07,13,14,46,28.20
2018,07,13,14,47,28.30
2018,07,13,14,48,28.30
2018,07,13,14,49,28.40
2018,07,13,14,50,28.50
2018,07,13,14,51,28.50
2018,07,13,14,52,28.60
2018,07,13,14,53,28.50
2018,07,13,14,54,28.50
2018,07,13,14,55,28.50
2018,07,13,14,56,28.60
2018,07,13,14,57,28.60
2018,07,13,14,58,28.60
2018,07,13,14,59,28.60
2018,07,13,15,00,28.50
2018,07,13,15,01,28.50
2018,07,13,15,02,28.40
2018,07,13,15,03,28.40
2018,07,13,15,04,28.30
2018,07,13,15,05,28.30
2018,07,13,15,06,28.30
2018,07,13,15,07,28.30
2018,07,13,15,08,28.30
2018,07,13,15,09,28.30
2018,07,13,15,10,28.30
2018,07,13,15,11,28.40
2018,07,13,15,12,28.30
2018,07,13,15,13,28.30
2018,07,13,15,14,28.30
2018,07,13,15,15,28.30
2018,07,13,15,16,28.30
2018,07,13,15,17,28.40
2018,07,13,15,18,28.40
2018,07,13,15,19,28.40
2018,07,13,15,20,28.40
2018,07,13,15,21,28.40
2018,07,13,15,22,28.40
2018,07,13,15,23,28.40
2018,07,13,15,24,28.40
2018,07,13,15,25,28.40
2018,07,13,15,26,28.30
2018,07,13,15,27,28.30
2018,07,13,15,28,28.30
2018,07,13,15,29,28.30
2018,07,13,15,30,28.30
2018,07,13,15,31,28.30
2018,07,13,15,32,28.30
2018,07,13,15,33,28.40
2018,07,13,15,34,28.40
2018,07,13,15,35,28.40
2018,07,13,15,36,28.50
2018,07,13,15,37,28.40
2018,07,13,15,38,28.40
2018,07,13,15,39,28.30
2018,07,13,15,40,28.30
2018,07,13,15,41,28.30
2018,07,13,15,42,28.30
2018,07,13,15,43,28.20
2018,07,13,15,44,28.20
2018,07,13,15,45,28.20
2018,07,13,15,46,28.20
2018,07,13,15,47,28.20
2018,07,13,15,48,28.20
2018,07,13,15,49,28.30
2018,07,13,15,50,28.30
2018,07,13,15,51,28.30
2018,07,13,15,52,28.30
2018,07,13,15,53,28.30
2018,07,13,15,54,28.30
2018,07,13,15,55,28.40
2018,07,13,15,56,28.40
2018,07,13,15,57,28.50
2018,07,13,15,58,28.50
2018,07,13,15,59,28.50
2018,07,13,16,00,28.60
2018,07,13,16,01,28.60
2018,07,13,16,02,28.60
2018,07,13,16,03,28.60
2018,07,13,16,04,28.70
2018,07,13,16,05,28.70
2018,07,13,16,06,28.70
2018,07,13,16,07,28.70
2018,07,13,16,08,28.60
2018,07,13,16,09,28.60
2018,07,13,16,10,28.60
2018,07,13,16,11,28.70
2018,07,13,16,12,28.70
2018,07,13,16,13,28.80
2018,07,13,16,14,28.80
2018,07,13,16,15,28.90
2018,07,13,16,16,28.90
2018,07,13,16,17,28.90
2018,07,13,16,18,28.90
2018,07,13,16,19,28.90
2018,07,13,16,20,28.90
2018,07,13,16,21,28.80
2018,07,13,16,22,28.90
2018,07,13,16,23,28.90
2018,07,13,16,24,28.80
2018,07,13,16,25,28.80
2018,07,13,16,26,28.80
2018,07,13,16,27,28.80
2018,07,13,16,28,28.70
2018,07,13,16,29,28.60
2018,07,13,16,30,28.50
2018,07,13,16,31,28.40
2018,07,13,16,32,28.30
2018,07,13,16,33,28.30
2018,07,13,16,34,28.30
2018,07,13,16,35,28.30
2018,07,13,16,36,28.30
2018,07,13,16,37,28.30
2018,07,13,16,38,28.30
2018,07,13,16,39,28.30
2018,07,13,16,40,28.20
2018,07,13,16,41,28.20
2018,07,13,16,42,28.20
2018,07,13,16,43,28.20
2018,07,13,16,44,28.20
2018,07,13,16,45,28.20
2018,07,13,16,46,28.20
2018,07,13,16,47,28.10
2018,07,13,16,48,28.10
2018,07,13,16,49,28.10
2018,07,13,16,50,28.10
2018,07,13,16,51,28.00
2018,07,13,16,52,27.90
2018,07,13,16,53,27.90
2018,07,13,16,54,27.90
2018,07,13,16,55,27.80
2018,07,13,16,56,27.80
2018,07,13,16,57,27.80
2018,07,13,16,58,27.80
2018,07,13,16,59,27.80
2018,07,13,17,00,27.80
2018,07,13,17,01,27.80
2018,07,13,17,02,27.80
2018,07,13,17,03,27.80
2018,07,13,17,04,27.80
2018,07,13,17,05,27.80
2018,07,13,17,06,27.70
2018,07,13,17,07,27.70
2018,07,13,17,08,27.70
2018,07,13,17,09,27.70
2018,07,13,17,10,27.70
2018,07,13,17,11,27.70
2018,07,13,17,12,27.70
2018,07,13,17,13,27.80
2018,07,13,17,14,27.80
2018,07,13,17,15,27.80
2018,07,13,17,16,27.80
2018,07,13,17,17,27.80
2018,07,13,17,18,27.80
2018,07,13,17,19,27.90